Sulphur Springs, TX

2:09 AM CST on November 20, 2017 (GMT -0600)
Sulphur Springs Municipal

Weather History for KSLR - September, 2013

Change the Weather History Date:

Tuesday, September 24, 2013

  Actual Average (KGVT) Record (KGVT)
Temperature  
Mean Temperature 78 °F -  
Max Temperature 92 °F 82 °F 95 °F (2012)
Min Temperature 63 °F 62 °F 50 °F (2014)
Cooling Degree Days 12    
Growing Degree Days 28 (Base 50)    
Moisture  
Dew Point 56 °F    
Average Humidity 54    
Maximum Humidity 83    
Minimum Humidity 21    
Precipitation  
Precipitation 0.00 in - - ()
Sea Level Pressure  
Sea Level Pressure 29.89 in    
Wind  
Wind Speed 3 mph (NW)    
Max Wind Speed 18 mph    
Max Gust Speed 18 mph    
Visibility 10 miles    
Events      
Averages and records for this station are not official NWS values.
T = Trace of Precipitation, MM = Missing Value Source: NWS Daily Summary

Daily Weather History Graph

Daily Weather History Graph

Search for Another Location

Airport or City:

Trip Planner

Search our weather history database for the weather conditions in past years. The results will help you decide how hot, cold, wet, or windy it might be!

Date:

Astronomy

Sep. 24, 2013 Rise Set
Actual Time 7:12 AM CDT 7:16 PM CDT
Civil Twilight 6:47 AM CDT 7:40 PM CDT
Nautical Twilight 6:18 AM CDT 8:09 PM CDT
Astronomical Twilight 5:49 AM CDT 8:38 PM CDT
Moon 10:50 PM CDT (9/24) 12:12 PM CDT (9/24)
Length of Visible Light 12h 53m
Length of Day
12h 03m
Waning Gibbous, 73% of the Moon is Illuminated
Sep 24
Waning Gibbous
Sep 26
Last Quarter
Oct 4
New
Oct 11
First Quarter
Oct 18
Full

Hourly Weather History & Observations

Time (CDT) Temp. Heat Index Dew Point Humidity Pressure Visibility Wind Dir Wind Speed Gust Speed Precip Events Conditions
12:15 AM 68.9 °F - 59.0 °F 71% 29.89 in 10.0 mi Calm Calm - N/A   Scattered Clouds
12:35 AM 68.7 °F - 60.1 °F 74% 29.89 in 10.0 mi Calm Calm - N/A   Scattered Clouds
12:55 AM 67.8 °F - 59.7 °F 75% 29.89 in 10.0 mi ESE 3.5 mph - N/A   Scattered Clouds
1:15 AM 67.3 °F - 59.0 °F 75% 29.89 in 10.0 mi ESE 5.8 mph - N/A   Clear
1:35 AM 67.3 °F - 59.0 °F 75% 29.89 in 10.0 mi ESE 4.6 mph - N/A   Clear
1:55 AM 67.5 °F - 58.8 °F 74% 29.89 in 10.0 mi Calm Calm - N/A   Clear
2:15 AM 67.3 °F - 58.6 °F 74% 29.89 in 10.0 mi Calm Calm - N/A   Clear
2:35 AM 67.1 °F - 58.6 °F 74% 29.89 in 10.0 mi Calm Calm - N/A   Scattered Clouds
2:55 AM 67.1 °F - 59.0 °F 75% 29.89 in 10.0 mi Calm Calm - N/A   Scattered Clouds
3:15 AM 66.4 °F - 59.7 °F 79% 29.89 in 10.0 mi Calm Calm - N/A   Scattered Clouds
3:35 AM 66.4 °F - 59.4 °F 78% 29.89 in 10.0 mi Calm Calm - N/A   Scattered Clouds
3:55 AM 66.4 °F - 59.4 °F 78% 29.90 in 10.0 mi Calm Calm - N/A   Clear
4:15 AM 66.2 °F - 59.0 °F 78% 29.90 in 10.0 mi Calm Calm - N/A   Clear
4:35 AM 65.8 °F - 59.0 °F 79% 29.90 in 10.0 mi Calm Calm - N/A   Clear
4:55 AM 65.8 °F - 59.0 °F 79% 29.90 in 10.0 mi Calm Calm - N/A   Clear
5:15 AM 65.3 °F - 59.0 °F 80% 29.90 in 10.0 mi Calm Calm - N/A   Clear
5:35 AM 64.8 °F - 59.0 °F 82% 29.91 in 10.0 mi Calm Calm - N/A   Clear
5:55 AM 64.8 °F - 59.0 °F 82% 29.91 in 10.0 mi Calm Calm - N/A   Clear
6:15 AM 64.9 °F - 58.8 °F 81% 29.91 in 10.0 mi Calm Calm - N/A   Clear
6:35 AM 64.2 °F - 58.6 °F 82% 29.91 in 10.0 mi Calm Calm - N/A   Clear
6:55 AM 63.9 °F - 58.6 °F 83% 29.91 in 10.0 mi Calm Calm - N/A   Clear
7:15 AM 64.6 °F - 58.8 °F 82% 29.92 in 10.0 mi Calm Calm - N/A   Clear
7:35 AM 64.9 °F - 58.5 °F 79% 29.92 in 10.0 mi Calm Calm - N/A   Clear
7:55 AM 65.3 °F - 59.2 °F 81% 29.92 in 10.0 mi Calm Calm - N/A   Clear
8:15 AM 67.3 °F - 61.9 °F 83% 29.93 in 10.0 mi Calm Calm - N/A   Clear
8:35 AM 68.9 °F - 60.6 °F 75% 29.93 in 10.0 mi Calm Calm - N/A   Clear
8:55 AM 70.2 °F - 60.8 °F 72% 29.93 in 10.0 mi Calm Calm - N/A   Clear
9:15 AM 71.6 °F - 61.0 °F 69% 29.94 in 10.0 mi Calm Calm - N/A   Clear
9:35 AM 73.0 °F - 61.7 °F 67% 29.94 in 10.0 mi Calm Calm - N/A   Clear
9:55 AM 75.0 °F - 61.7 °F 63% 29.94 in 10.0 mi Calm Calm - N/A   Clear
10:15 AM 77.5 °F - 63.5 °F 62% 29.94 in 10.0 mi West 3.5 mph - N/A   Clear
10:35 AM 80.2 °F 81.8 °F 63.7 °F 57% 29.94 in 10.0 mi West 3.5 mph - N/A   Clear
10:55 AM 82.6 °F 83.9 °F 64.0 °F 53% 29.95 in 10.0 mi NW 4.6 mph - N/A   Clear
11:15 AM 84.9 °F 85.9 °F 63.3 °F 48% 29.94 in 10.0 mi WNW 8.1 mph - N/A   Clear
11:35 AM 85.1 °F 85.2 °F 61.2 °F 44% 29.94 in 10.0 mi WNW 9.2 mph 17.3 mph N/A   Clear
11:55 AM 86.5 °F 86.5 °F 60.8 °F 42% 29.94 in 10.0 mi WNW 10.4 mph - N/A   Clear
12:15 PM 87.3 °F 87.0 °F 60.1 °F 40% 29.93 in 10.0 mi NW 8.1 mph - N/A   Clear
12:55 PM 88.7 °F 87.1 °F 55.9 °F 33% 29.92 in 10.0 mi NW 11.5 mph - N/A   Clear
1:15 PM 89.2 °F 87.5 °F 55.9 °F 32% 29.91 in 10.0 mi NW 9.2 mph - N/A   Clear
1:35 PM 90.1 °F - 50.9 °F 26% 29.90 in 10.0 mi NW 10.4 mph - N/A   Clear
1:55 PM 90.7 °F - 48.7 °F 24% 29.89 in 10.0 mi NNW 15.0 mph - N/A   Clear
2:15 PM 91.4 °F - 48.2 °F 23% 29.89 in 10.0 mi NW 12.7 mph 17.3 mph N/A   Clear
2:35 PM 91.4 °F - 49.1 °F 23% 29.88 in 10.0 mi North 9.2 mph - N/A   Clear
2:55 PM 91.4 °F - 50.4 °F 25% 29.88 in 10.0 mi NNW 15.0 mph 18.4 mph N/A   Clear
3:15 PM 91.6 °F - 47.5 °F 22% 29.87 in 10.0 mi NW 9.2 mph - N/A   Clear
3:35 PM 92.1 °F - 47.7 °F 22% 29.87 in 10.0 mi NNW 6.9 mph - N/A   Clear
3:55 PM 91.8 °F - 47.5 °F 22% 29.86 in 10.0 mi North 9.2 mph 12.7 mph N/A   Clear
4:15 PM 92.1 °F - 46.4 °F 21% 29.86 in 10.0 mi NNW 12.7 mph 16.1 mph N/A   Clear
4:35 PM 91.6 °F - 47.1 °F 22% 29.86 in 10.0 mi NNW 18.4 mph - N/A   Clear
4:55 PM 91.8 °F - 46.8 °F 21% 29.85 in 10.0 mi NNW 13.8 mph - N/A   Clear
5:15 PM 91.4 °F - 45.9 °F 21% 29.85 in 10.0 mi NW 12.7 mph 17.3 mph N/A   Clear
5:35 PM 90.7 °F - 45.1 °F 21% 29.85 in 10.0 mi NW 15.0 mph - N/A   Clear
5:55 PM 89.8 °F - 46.0 °F 22% 29.85 in 10.0 mi NNW 11.5 mph - N/A   Clear
6:15 PM 88.9 °F - 47.5 °F 24% 29.85 in 10.0 mi NW 11.5 mph - N/A   Clear
6:35 PM 87.1 °F - 50.7 °F 29% 29.85 in 10.0 mi NNW 8.1 mph - N/A   Clear
6:55 PM 84.2 °F 82.9 °F 54.7 °F 36% 29.85 in 10.0 mi NW 6.9 mph - N/A   Clear
7:15 PM 82.4 °F 81.7 °F 55.4 °F 39% 29.85 in 10.0 mi NW 5.8 mph - N/A   Clear
7:35 PM 80.6 °F 80.8 °F 57.6 °F 45% 29.85 in 10.0 mi NW 5.8 mph - N/A   Clear
7:55 PM 79.7 °F - 59.0 °F 49% 29.85 in 10.0 mi NW 4.6 mph - N/A   Clear
8:15 PM 78.3 °F - 57.4 °F 49% 29.86 in 10.0 mi NW 3.5 mph - N/A   Clear
8:35 PM 77.9 °F - 56.1 °F 47% 29.86 in 10.0 mi Calm Calm - N/A   Clear
8:55 PM 76.3 °F - 55.2 °F 48% 29.87 in 10.0 mi Calm Calm - N/A   Clear
9:15 PM 76.1 °F - 52.7 °F 44% 29.87 in 10.0 mi Calm Calm - N/A   Clear
9:35 PM 75.2 °F - 53.4 °F 47% 29.88 in 10.0 mi Calm Calm - N/A   Clear
9:55 PM 74.8 °F - 51.8 °F 44% 29.88 in 10.0 mi Calm Calm - N/A   Clear
10:15 PM 71.6 °F - 52.0 °F 50% 29.89 in 10.0 mi Calm Calm - N/A   Clear
10:35 PM 71.8 °F - 52.0 °F 50% 29.89 in 10.0 mi Calm Calm - N/A   Clear
10:55 PM 72.0 °F - 51.6 °F 49% 29.88 in 10.0 mi Calm Calm - N/A   Clear
11:15 PM 71.6 °F - 52.7 °F 51% 29.89 in 10.0 mi Calm Calm - N/A   Clear
11:35 PM 71.1 °F - 52.9 °F 53% 29.89 in 10.0 mi Calm Calm - N/A   Clear
11:55 PM 69.6 °F - 52.7 °F 55% 29.89 in 10.0 mi Calm Calm - N/A   Clear